Miscellaneous Local Product
Issued by NWS North Platte, NE

Home | Current Version | Previous Version | Text Only | Print | Product List | Glossary On
Versions: 1 2 3 4 5 6 7 8 9 10 11 12 13 14 15 16 17 18 19 20 21 22 23 24 25 26 27 28 29 30 31 32 33 34 35 36 37 38 39 40 41 42 43 44 45 46 47 48 49 50
020
AXUS43 KLBF 252010
MISLBF


WESTERN AND NORTH CENTRAL NEBRASKA HOURLY WEATHER ROUNDUP
NATIONAL WEATHER SERVICE NORTH PLATTE NE
300 PM CDT TUE APR 25 2017

NOTE: "FAIR" INDICATES FEW OR NO CLOUDS BELOW 12,000 FEET WITH NO
SIGNIFICANT WEATHER AND/OR OBSTRUCTIONS TO VISIBILITY.

NOTE: STATIONS NOT REPORTING VARIABLES SUCH AS SKY/WEATHER OR
PRESSURE ARE PROVIDED BY RAWS AND APRS NETWORKS AND ARE NOT UNDER
NATIONAL WEATHER SERVICE QUALITY CONTROL.

...OBSERVATIONS IN AND NEAR THE EASTERN PANHANDLE OF NEBRASKA...

CITY           SKY/WX    TMP DP  RH WIND       PRES   REMARKS
PINE RIDGE     MIX PCPN  37  32  82 N17       29.73S WCI  27
CHADRON        LGT SNOW  35  31  85 NE15      29.74R FOG     WCI  25
ALLIANCE       CLOUDY    39  33  79 NE17      29.65R WCI  30
SIDNEY         MOSUNNY   57  36  45 VRB3      29.56S
CRESCENT LAKE    N/A     40  37  88 NE13G20     N/A  WCI  32
$$

...OBSERVATIONS IN NORTHERN NEBRASKA AND FAR SOUTHERN SOUTH DAKOTA...

CITY           SKY/WX    TMP DP  RH WIND       PRES   REMARKS
WINNER         LGT RAIN  38  33  82 N16       29.72R WCI  29
VALENTINE      CLOUDY    37  31  78 N18       29.70S WCI  27
THEDFORD       CLOUDY    40  37  86 N16       29.65R WCI  32
AINSWORTH      CLOUDY    35  34  99 N20G25    29.68R WCI  23
O`NEILL        CLOUDY    38  35  89 N16G25    29.64R WCI  29
ORD            CLOUDY    40  36  86 N20G26    29.61R WCI  30
BROKEN BOW     CLOUDY    41  39  93 N18G26    29.60R
VALENTINE NWR    N/A     36  34  91 N12G22      N/A  WCI  28
HALSEY           N/A     38  36  91 N9G17       N/A  WCI  31
BUTTE            N/A     37  33  87 N23G30      N/A  WCI  26
CHAMBERS         N/A     38  35  89 N6          N/A  WCI  33
EWING            N/A     39  37  92 N13G21      N/A  WCI  31
$$

...OBSERVATIONS IN SOUTHWEST NEBRASKA AND FAR NORTHEAST COLORADO...

CITY           SKY/WX    TMP DP  RH WIND       PRES   REMARKS
HOLYOKE        FAIR      59  46  63 NE16      29.57S
IMPERIAL       PTSUNNY   51  44  77 NE12      29.58F
OGALLALA       CLOUDY    52  42  69 NE9       29.60F
NORTH PLATTE   CLOUDY    49  41  74 N12       29.61R
MCCOOK         CLOUDY    50  43  77 N10       29.59R
LEXINGTON      CLOUDY    45  40  83 N10       29.60R
STAPLETON        N/A     41  37  87 CALM        N/A
GOTHENBURG       N/A     44  38  78 N6          N/A
CALLAWAY         N/A     41  39  92 NE14        N/A
$$

...OBSERVATIONS IN CENTRAL LINCOLN COUNTY AREA...

CITY           SKY/WX    TMP DP  RH WIND       PRES   REMARKS
N.P. AIRPORT   CLOUDY    49  41  74 N12       29.61R
N.P. DOWNTOWN    N/A     46  40  79 N10         N/A
N.P. SOUTHEAST   N/A     47  40  76 N6          N/A
N.P. HILLCREST   N/A     45  39  80 N16G23      N/A
$$

...SOME OBSERVATIONS FROM AROUND THE REGION...

CITY           SKY/WX    TMP DP  RH WIND       PRES   REMARKS
DENVER         PTSUNNY   54  32  43 E15G26    29.57S
LIMON          LGT RAIN  51  32  48 VRB5      29.57R
ASPEN          FLURRIES  38  29  70 NW10      29.68R WCI  31
LARAMIE        LGT RAIN  36  31  82 N22G31    29.66R WCI  25
CASPER         LGT SNOW  30  26  85 N20G26    29.77R FOG     WCI  17
CHEYENNE       CLOUDY    50  27  40 NW21G30   29.61R
SCOTTSBLUFF    LGT RAIN  42  37  82 NE17      29.65R
GRAND ISLAND   CLOUDY    42  39  89 N20       29.58S
OMAHA          CLOUDY    52  43  71 N17       29.49S
SIOUX FALLS    RAIN      41  41 100 NE10      29.61R FOG
PIERRE         CLOUDY    35  28  75 N17       29.77R WCI  25
RAPID CITY     LGT SNOW  30  27  88 N17       29.80R FOG     WCI  18
BISMARCK       CLOUDY    33  26  75 N20G26    29.88S WCI  21
KANSAS CITY    CLOUDY    70  55  59 S8        29.41F
HILL CITY      PTSUNNY   59  43  55 N16       29.55R
WICHITA        CLOUDY    71  57  61 NW12      29.41R
DODGE CITY     CLOUDY    57  46  66 N14       29.52R
OKLAHOMA CITY  PTSUNNY   82  61  48 S23G30    29.37F
DALLAS         PTSUNNY   82  66  58 S22G31    29.47F
AMARILLO       CLOUDY    72  38  29 W10       29.50F
$$




USA.gov is the U.S. government's official web portal to all federal, state and local government web resources and services.